TimeCST,TemperatureF,Dew PointF,Humidity,Sea Level PressureIn,VisibilityMPH,Wind Direction,Wind SpeedMPH,Gust SpeedMPH,PrecipitationIn,Events,Conditions,WindDirDegrees,DateUTC
12:53 AM,25.0,12.9,60,29.75,10.0,South,5.8,16.1,N/A,,Partly Cloudy,190,2013-02-18 06:53:00
1:53 AM,24.1,12.9,62,29.70,10.0,South,4.6,-,N/A,,Clear,180,2013-02-18 07:53:00
2:53 AM,25.0,15.1,66,29.68,10.0,South,8.1,-,N/A,,Scattered Clouds,180,2013-02-18 08:53:00
3:53 AM,21.9,14.0,72,29.66,10.0,Calm,Calm,-,N/A,,Clear,0,2013-02-18 09:53:00
4:53 AM,21.0,14.0,74,29.66,10.0,Calm,Calm,-,N/A,,Scattered Clouds,0,2013-02-18 10:53:00
5:53 AM,21.9,15.1,75,29.63,10.0,SSE,3.5,-,N/A,,Scattered Clouds,150,2013-02-18 11:53:00
6:53 AM,24.1,16.0,71,29.62,10.0,South,3.5,-,N/A,,Overcast,180,2013-02-18 12:53:00
7:53 AM,26.1,18.0,71,29.60,10.0,South,3.5,-,N/A,,Overcast,170,2013-02-18 13:53:00
8:20 AM,26.6,17.6,69,29.56,10.0,SSE,3.5,-,N/A,,Overcast,150,2013-02-18 14:20:00
8:53 AM,27.0,18.0,69,29.59,10.0,Variable,3.5,-,N/A,,Overcast,0,2013-02-18 14:53:00
9:53 AM,28.9,19.9,69,29.59,10.0,SSW,5.8,-,N/A,,Overcast,200,2013-02-18 15:53:00
10:53 AM,30.0,21.0,69,29.57,10.0,SSW,8.1,-,N/A,,Overcast,200,2013-02-18 16:53:00
11:53 AM,30.9,21.9,69,29.55,10.0,South,3.5,-,N/A,,Overcast,180,2013-02-18 17:53:00
12:53 PM,32.0,23.0,69,29.54,10.0,SSW,5.8,-,N/A,,Overcast,200,2013-02-18 18:53:00
1:53 PM,33.1,24.1,70,29.52,10.0,Variable,3.5,-,N/A,,Overcast,0,2013-02-18 19:53:00
2:53 PM,34.0,24.1,67,29.54,9.0,Variable,3.5,-,N/A,,Overcast,0,2013-02-18 20:53:00
3:53 PM,30.9,24.1,76,29.57,10.0,North,9.2,-,N/A,,Overcast,10,2013-02-18 21:53:00
4:53 PM,28.9,24.1,82,29.59,4.0,WNW,8.1,-,N/A,,Haze,290,2013-02-18 22:53:00
5:11 PM,28.4,24.8,86,29.55,3.0,WNW,8.1,-,N/A,,Overcast,290,2013-02-18 23:11:00
5:53 PM,28.0,25.0,88,29.60,5.0,WNW,5.8,-,N/A,,Overcast,290,2013-02-18 23:53:00
6:05 PM,28.4,24.8,86,29.56,6.0,WNW,5.8,-,N/A,,Overcast,300,2013-02-19 00:05:00
6:40 PM,28.4,24.8,86,29.56,7.0,WNW,4.6,-,N/A,,Overcast,300,2013-02-19 00:40:00
6:53 PM,28.0,25.0,88,29.60,7.0,WNW,4.6,-,N/A,,Overcast,290,2013-02-19 00:53:00
7:01 PM,28.4,24.8,86,29.56,6.0,WNW,5.8,-,N/A,,Overcast,290,2013-02-19 01:01:00
7:25 PM,28.4,24.8,86,29.55,6.0,WNW,5.8,-,N/A,,Overcast,300,2013-02-19 01:25:00
7:53 PM,28.0,25.0,88,29.60,8.0,NW,6.9,-,N/A,,Overcast,310,2013-02-19 01:53:00
8:51 PM,28.4,23.0,80,29.56,10.0,NW,8.1,-,N/A,,Overcast,320,2013-02-19 02:51:00
8:53 PM,28.0,23.0,81,29.60,10.0,NW,5.8,-,N/A,,Overcast,320,2013-02-19 02:53:00
9:33 PM,26.6,23.0,86,29.57,1.8,WNW,17.3,23.0,0.00,Snow,Light Snow,300,2013-02-19 03:33:00
9:53 PM,24.1,19.9,84,29.62,1.8,NW,11.5,19.6,0.00,Snow,Light Snow,310,2013-02-19 03:53:00
10:01 PM,24.8,19.4,80,29.58,2.0,NW,16.1,21.9,0.00,Snow,Light Snow,320,2013-02-19 04:01:00
10:18 PM,23.0,17.6,80,29.59,4.0,NW,16.1,23.0,0.00,Snow,Light Snow,310,2013-02-19 04:18:00
10:53 PM,21.0,15.1,78,29.64,5.0,NNW,17.3,23.0,0.00,Snow,Light Snow,330,2013-02-19 04:53:00
11:53 PM,19.0,12.9,77,29.66,4.0,NNW,15.0,21.9,0.00,Snow,Light Snow,330,2013-02-19 05:53:00